Total_Precipitation_Accumulation
1.66 1.48 2.09 2.98 2.85 2.27 1.87 1.36 0.90 0.74 0.51 0.41 0.33 0.34 0.53 0.84 1.12 1.36 1.19 1.02 0.64 0.47 0.41 0.61 0.95 0.88 0.84 0.83 0.77 0.69 0.70 0.65 0.58 0.58 0.55 0.55 0.51 0.45 0.42 0.39 0.39 0.36 0.34 0.34 0.40 0.48 0.54 0.55 0.62
1.27 1.73 2.43 3.21 2.72 2.14 1.97 1.37 0.96 0.69 0.41 0.29 0.22 0.21 0.31 0.36 0.31 0.63 1.13 1.21 0.56 0.36 0.38 0.53 0.88 0.89 0.90 0.89 0.80 0.75 0.75 0.69 0.68 0.67 0.63 0.62 0.55 0.47 0.43 0.42 0.39 0.38 0.38 0.41 0.43 0.49 0.58 0.61 0.63
1.46 2.37 2.94 2.85 2.17 2.10 2.00 1.31 0.80 0.46 0.25 0.20 0.19 0.17 0.24 0.38 0.41 0.71 1.07 0.85 0.51 0.39 0.43 0.67 0.93 0.91 0.90 0.83 0.79 0.85 0.81 0.72 0.71 0.69 0.67 0.67 0.61 0.57 0.48 0.44 0.44 0.43 0.48 0.52 0.50 0.52 0.57 0.64 0.66
1.61 2.52 2.64 2.22 2.05 1.73 1.31 0.91 0.58 0.47 0.32 0.16 0.14 0.20 0.26 0.43 0.54 0.67 0.73 0.62 0.54 0.52 0.48 0.62 0.82 0.89 0.87 0.75 0.76 0.86 0.79 0.74 0.66 0.59 0.60 0.60 0.58 0.58 0.51 0.53 0.54 0.50 0.53 0.59 0.61 0.64 0.65 0.66 0.67
2.03 2.49 2.25 1.92 1.85 1.40 0.98 0.68 0.49 0.50 0.46 0.22 0.13 0.28 0.43 0.55 0.59 0.62 0.64 0.56 0.51 0.50 0.42 0.48 0.73 0.80 0.77 0.74 0.79 0.89 0.82 0.75 0.63 0.56 0.60 0.61 0.60 0.58 0.56 0.58 0.58 0.56 0.54 0.58 0.63 0.68 0.68 0.64 0.66
2.27 2.21 2.05 1.86 1.81 1.42 1.06 0.69 0.52 0.50 0.41 0.27 0.21 0.37 0.54 0.64 0.72 0.73 0.72 0.78 0.75 0.71 0.57 0.55 0.73 0.79 0.76 0.79 0.82 0.89 0.89 0.78 0.65 0.59 0.59 0.56 0.57 0.57 0.58 0.59 0.60 0.60 0.59 0.62 0.63 0.63 0.62 0.57 0.58
2.20 2.08 1.82 1.50 1.65 1.79 1.28 0.77 0.61 0.58 0.47 0.34 0.26 0.44 0.58 0.72 0.74 0.80 0.91 0.99 1.04 1.06 0.95 0.85 0.80 0.75 0.77 0.84 0.81 0.96 1.09 0.93 0.75 0.66 0.66 0.58 0.54 0.54 0.54 0.54 0.60 0.61 0.63 0.62 0.62 0.64 0.63 0.60 0.57
1.83 1.75 1.52 1.47 1.67 1.87 1.23 0.80 0.65 0.60 0.51 0.27 0.23 0.39 0.58 0.58 0.62 0.80 0.94 0.98 0.99 1.03 0.95 0.95 1.03 1.01 1.00 1.01 1.08 1.19 1.50 1.38 1.00 0.81 0.70 0.65 0.58 0.55 0.59 0.56 0.59 0.65 0.67 0.69 0.72 0.71 0.70 0.71 0.66
1.74 1.88 1.87 1.94 1.93 1.67 1.11 0.91 0.72 0.50 0.44 0.31 0.25 0.32 0.42 0.43 0.54 0.63 0.70 0.71 0.75 0.78 0.82 0.88 0.94 0.96 0.98 0.96 1.13 1.38 1.67 1.73 1.38 1.10 0.95 0.79 0.55 0.58 0.66 0.59 0.69 0.74 0.77 0.80 0.87 0.86 0.80 0.80 0.71
1.70 1.83 1.76 1.59 1.28 1.01 0.87 0.77 0.66 0.59 0.61 0.47 0.38 0.35 0.40 0.44 0.57 0.61 0.61 0.65 0.64 0.60 0.57 0.58 0.62 0.67 0.72 0.77 1.04 1.27 1.33 1.53 1.31 1.28 1.13 0.98 0.92 0.87 0.69 0.64 0.79 0.86 0.87 0.86 0.91 0.96 0.82 0.69 0.56
1.49 1.44 1.24 1.15 0.83 0.62 0.58 0.53 0.46 0.46 0.56 0.49 0.44 0.37 0.42 0.48 0.52 0.54 0.53 0.53 0.54 0.55 0.52 0.45 0.46 0.48 0.54 0.67 0.88 1.10 1.23 1.40 1.41 1.39 1.33 1.32 1.27 0.94 0.78 0.85 0.88 0.90 0.89 0.79 0.84 0.84 0.65 0.52 0.48
1.44 1.15 0.98 0.89 0.62 0.59 0.55 0.45 0.38 0.32 0.34 0.26 0.30 0.31 0.38 0.46 0.46 0.43 0.44 0.45 0.45 0.50 0.56 0.49 0.37 0.37 0.39 0.47 0.66 0.86 1.07 1.26 1.31 1.14 1.06 1.19 1.20 1.01 0.88 1.01 1.09 1.07 1.02 1.01 1.02 0.93 0.77 0.58 0.51
1.39 1.27 0.98 0.81 0.59 0.57 0.48 0.42 0.34 0.25 0.24 0.22 0.25 0.35 0.43 0.53 0.51 0.45 0.40 0.41 0.41 0.47 0.54 0.56 0.48 0.40 0.39 0.44 0.51 0.58 0.87 1.05 1.20 1.25 1.03 1.15 1.19 1.12 0.99 0.93 1.10 1.06 1.05 1.06 1.07 1.03 0.91 0.79 0.64
1.27 1.16 0.86 0.73 0.60 0.55 0.50 0.43 0.37 0.28 0.26 0.25 0.28 0.40 0.47 0.55 0.57 0.52 0.44 0.40 0.37 0.40 0.47 0.52 0.55 0.54 0.50 0.49 0.51 0.51 0.56 0.67 0.79 0.76 0.73 0.92 1.04 1.01 1.01 0.88 0.94 1.00 1.11 1.26 1.25 1.09 1.01 0.91 0.78
0.98 1.02 1.00 0.78 0.65 0.55 0.55 0.58 0.39 0.28 0.30 0.32 0.32 0.35 0.45 0.48 0.49 0.45 0.41 0.37 0.36 0.39 0.42 0.47 0.54 0.61 0.62 0.63 0.71 0.64 0.59 0.64 0.64 0.60 0.61 0.72 0.83 0.85 0.98 0.96 0.92 0.93 1.11 1.28 1.36 1.25 1.17 0.98 0.90
0.97 1.07 1.27 0.95 0.80 0.66 0.74 0.78 0.37 0.29 0.27 0.29 0.29 0.28 0.32 0.35 0.37 0.36 0.37 0.37 0.37 0.38 0.37 0.39 0.43 0.48 0.53 0.60 0.68 0.73 0.73 0.75 0.71 0.74 0.70 0.66 0.79 0.91 1.03 1.07 0.98 0.97 1.13 1.29 1.40 1.46 1.43 1.29 1.17
1.06 1.01 1.00 0.92 0.73 0.61 0.63 0.60 0.33 0.26 0.23 0.24 0.23 0.21 0.24 0.23 0.25 0.26 0.27 0.31 0.35 0.37 0.33 0.31 0.32 0.32 0.35 0.42 0.54 0.65 0.72 0.80 0.87 0.88 0.87 0.84 0.88 0.92 1.06 1.21 1.21 1.19 1.27 1.31 1.32 1.39 1.35 1.35 1.32
0.79 0.70 0.69 0.75 0.57 0.54 0.50 0.38 0.27 0.24 0.20 0.19 0.20 0.20 0.19 0.18 0.16 0.15 0.18 0.25 0.28 0.30 0.31 0.30 0.31 0.30 0.27 0.31 0.45 0.56 0.63 0.71 0.87 0.94 1.01 1.27 1.36 1.14 1.11 1.22 1.24 1.26 1.39 1.40 1.52 1.65 1.50 1.37 1.43
0.56 0.48 0.53 0.55 0.40 0.43 0.38 0.30 0.24 0.19 0.15 0.13 0.15 0.16 0.17 0.16 0.09 0.05 0.06 0.09 0.16 0.16 0.15 0.18 0.24 0.31 0.29 0.26 0.33 0.44 0.53 0.67 0.81 0.97 1.04 1.27 1.38 1.28 1.30 1.30 1.29 1.30 1.34 1.37 1.54 1.83 1.74 1.56 1.47
0.52 0.50 0.48 0.43 0.37 0.37 0.35 0.30 0.22 0.15 0.12 0.10 0.11 0.12 0.14 0.13 0.07 0.06 0.04 0.04 0.06 0.09 0.09 0.12 0.16 0.25 0.32 0.36 0.41 0.53 0.71 0.83 0.93 1.06 1.13 1.24 1.26 1.26 1.19 1.33 1.42 1.37 1.44 1.50 1.65 1.87 1.97 1.78 1.63
0.46 0.51 0.43 0.39 0.39 0.35 0.37 0.37 0.23 0.14 0.12 0.11 0.11 0.13 0.12 0.09 0.07 0.08 0.07 0.06 0.04 0.05 0.07 0.12 0.20 0.33 0.50 0.66 0.88 1.13 1.41 1.53 1.42 1.27 1.34 1.47 1.53 1.49 1.42 1.49 1.62 1.54 1.55 1.60 1.64 1.69 2.03 2.12 1.94
0.49 0.35 0.30 0.32 0.43 0.37 0.29 0.38 0.24 0.16 0.17 0.16 0.14 0.14 0.14 0.12 0.10 0.09 0.08 0.07 0.09 0.12 0.19 0.29 0.41 0.57 0.74 0.95 1.17 1.43 1.66 1.82 1.84 1.86 1.89 1.87 1.82 1.70 1.59 1.59 1.63 1.65 1.70 1.63 1.52 1.65 1.98 2.34 2.31
0.40 0.32 0.29 0.32 0.40 0.32 0.23 0.25 0.21 0.21 0.27 0.29 0.28 0.27 0.26 0.23 0.22 0.21 0.18 0.17 0.19 0.29 0.42 0.53 0.76 0.93 1.07 1.13 1.23 1.45 1.56 1.63 1.74 1.88 1.93 1.93 1.84 1.71 1.56 1.51 1.54 1.61 1.71 1.70 1.73 1.87 2.13 2.36 2.51
0.35 0.38 0.38 0.40 0.45 0.36 0.21 0.20 0.28 0.32 0.39 0.44 0.43 0.38 0.35 0.29 0.26 0.29 0.32 0.32 0.36 0.58 0.81 0.96 1.07 1.16 1.16 1.14 1.16 1.30 1.44 1.52 1.60 1.73 1.79 1.73 1.59 1.54 1.51 1.49 1.45 1.40 1.48 1.58 1.73 1.97 2.08 2.24 2.43
0.35 0.46 0.50 0.50 0.45 0.34 0.17 0.22 0.35 0.32 0.30 0.34 0.38 0.36 0.32 0.24 0.21 0.25 0.34 0.47 0.66 0.91 1.14 1.29 1.28 1.18 1.05 1.03 1.09 1.15 1.30 1.44 1.48 1.49 1.51 1.45 1.38 1.34 1.36 1.37 1.32 1.22 1.21 1.33 1.50 1.71 1.76 1.88 2.06
0.29 0.35 0.44 0.47 0.38 0.27 0.22 0.35 0.43 0.33 0.23 0.19 0.20 0.21 0.23 0.27 0.32 0.33 0.39 0.58 0.86 1.13 1.37 1.64 1.62 1.38 1.16 1.11 1.17 1.19 1.27 1.33 1.31 1.25 1.26 1.26 1.22 1.17 1.11 1.14 1.15 1.11 1.10 1.13 1.23 1.33 1.40 1.50 1.67
0.24 0.26 0.27 0.37 0.30 0.24 0.22 0.31 0.32 0.22 0.16 0.15 0.17 0.21 0.28 0.33 0.41 0.50 0.62 0.72 0.92 1.15 1.48 1.76 1.82 1.62 1.46 1.37 1.31 1.31 1.21 1.12 1.05 0.97 0.96 0.99 1.00 0.94 0.90 0.97 1.06 1.12 1.04 0.98 1.05 1.11 1.15 1.27 1.40
0.20 0.22 0.23 0.37 0.38 0.30 0.24 0.28 0.21 0.13 0.11 0.14 0.22 0.27 0.33 0.40 0.43 0.58 0.84 1.06 1.28 1.24 1.37 1.61 1.54 1.48 1.46 1.47 1.46 1.35 1.20 1.07 1.03 0.95 0.92 0.89 0.94 0.85 0.85 0.88 0.89 0.90 0.88 0.92 1.01 1.10 1.19 1.20 1.25
0.16 0.19 0.20 0.27 0.30 0.35 0.41 0.38 0.23 0.19 0.21 0.27 0.35 0.37 0.41 0.47 0.51 0.65 0.82 0.97 1.16 1.27 1.29 1.33 1.32 1.33 1.29 1.22 1.18 1.06 0.86 0.75 0.76 0.77 0.73 0.68 0.71 0.66 0.68 0.66 0.70 0.81 0.81 0.80 0.90 0.96 0.98 1.08 1.17
0.18 0.22 0.23 0.35 0.38 0.38 0.53 0.56 0.34 0.34 0.39 0.47 0.53 0.56 0.60 0.60 0.63 0.72 0.80 0.95 1.04 1.05 1.10 1.17 1.10 1.09 1.04 0.93 0.84 0.72 0.57 0.51 0.56 0.57 0.52 0.45 0.47 0.44 0.51 0.55 0.54 0.70 0.86 0.88 0.91 0.92 0.89 0.95 1.00